Probability
5 4 2 1 0 0 0 0 0 0 0 0 0 0 0 0 0 0 0 0 0 0 0 0 0 0 0 0 1 2 3 3 2 1 0 0 0 0 0 0 0 0 0
5 4 3 2 1 0 0 0 0 0 0 0 0 0 0 0 0 0 0 0 0 0 1 1 0 0 0 0 0 1 3 3 2 1 0 0 0 0 0 0 0 0 0
3 3 3 2 1 0 0 0 0 0 0 0 0 0 0 0 0 0 0 0 0 0 1 1 0 0 0 1 0 1 2 3 2 1 0 0 0 0 0 0 0 0 0
1 2 3 2 1 0 0 0 0 0 0 0 0 0 0 0 0 0 0 0 0 0 1 1 0 0 0 0 0 1 2 3 2 1 0 0 0 0 0 0 0 0 0
0 1 2 2 1 0 0 0 0 0 0 0 0 0 0 0 0 0 0 0 0 0 0 0 0 0 0 0 0 1 2 3 2 1 0 0 0 0 0 0 0 0 0
0 0 1 1 1 0 0 0 0 0 0 0 0 0 0 0 0 0 0 0 0 0 0 0 0 0 0 0 0 1 2 3 2 1 0 0 0 0 0 0 0 0 0
0 0 0 0 0 0 0 0 0 0 0 0 0 0 0 0 0 0 0 0 0 0 0 0 0 0 0 0 0 0 1 2 2 1 0 0 0 0 0 0 0 0 0
0 0 0 0 0 0 0 0 0 0 0 0 0 0 0 0 0 0 0 0 0 0 0 0 0 0 0 0 0 0 0 1 2 1 0 0 0 0 0 0 0 0 0
0 0 0 0 0 0 0 0 0 0 0 0 0 0 0 0 0 0 0 0 0 0 0 0 0 0 0 0 0 0 0 1 2 2 1 0 0 0 0 0 0 0 0
0 0 0 0 0 0 0 0 0 0 0 0 0 0 0 0 0 0 0 0 0 0 0 0 0 0 0 0 0 0 0 0 1 2 1 0 0 0 0 0 0 0 0
0 0 0 0 0 0 0 0 0 0 0 0 0 0 0 0 0 0 0 0 0 0 0 0 0 0 0 0 0 0 0 0 1 2 2 1 0 0 0 0 0 0 0
0 0 0 0 0 0 0 0 0 0 0 0 0 0 0 0 0 0 0 0 0 0 0 0 0 0 0 0 0 0 0 0 1 2 3 2 1 1 0 0 0 0 0
0 0 0 0 0 0 0 0 0 0 0 0 0 0 0 0 0 0 0 0 0 0 0 0 0 0 0 0 0 0 0 0 0 1 3 2 1 0 0 0 0 0 0
0 0 0 0 0 0 0 0 0 0 0 0 0 0 0 0 0 0 0 0 0 0 0 0 0 0 0 0 0 0 0 0 0 1 2 2 1 0 0 0 0 0 0
0 0 0 0 0 0 0 0 0 0 0 0 0 0 0 0 0 0 0 0 0 0 0 0 0 0 0 0 0 0 0 0 0 0 1 1 0 0 0 0 0 0 0
0 0 0 0 0 0 0 0 0 0 0 0 0 0 0 0 0 0 0 0 0 0 0 0 0 0 0 0 0 0 0 0 0 0 0 0 0 0 0 0 0 0 0
0 0 0 0 0 0 0 0 0 0 0 0 0 0 0 0 0 0 0 0 0 0 0 0 0 0 0 0 0 0 0 0 0 0 0 0 0 0 0 0 0 0 0
0 0 0 0 0 0 0 0 0 0 0 0 0 0 0 0 0 0 0 0 0 0 0 0 0 0 0 0 0 0 0 0 0 0 0 0 0 0 0 0 0 0 0
0 0 0 0 0 0 0 0 0 0 0 0 0 0 0 0 0 0 0 0 0 0 0 0 0 0 0 0 0 0 0 0 0 0 0 0 0 0 0 0 0 0 0
0 0 0 0 0 0 0 0 0 0 0 0 0 0 0 0 0 0 0 0 0 0 0 0 0 0 0 0 0 0 0 0 0 0 0 0 0 0 0 0 0 0 0
0 0 0 0 0 0 0 0 0 0 0 0 0 0 0 0 0 0 0 0 0 0 0 0 0 0 0 0 0 0 0 0 0 0 0 0 0 0 0 0 0 0 0
0 0 0 0 0 0 0 0 0 0 0 0 0 0 0 0 0 0 0 0 0 0 0 0 0 0 0 0 0 0 0 0 0 0 0 0 0 0 0 0 0 0 0
0 0 0 0 0 0 0 0 0 0 0 0 0 0 0 0 0 0 0 0 0 0 0 0 0 0 0 0 0 0 0 0 0 0 0 0 0 0 0 0 0 0 0
0 0 0 0 0 0 0 0 0 0 0 0 0 0 0 0 0 0 0 0 0 0 0 0 0 0 0 0 0 0 0 0 0 0 0 0 0 0 0 0 0 0 0
0 0 0 0 0 0 0 0 0 0 0 0 0 0 0 0 0 0 0 0 0 0 0 0 0 0 0 0 0 0 0 0 0 0 0 0 0 0 0 0 0 0 0
0 0 0 0 0 0 0 0 0 0 0 0 0 0 0 0 0 0 0 0 0 0 0 0 0 0 0 0 0 0 0 0 0 0 0 0 0 0 0 0 0 0 0
Wind_Speed
0 0 0 1 1 1 1 1 1 2 2 2 1 1 0 0 0 0 0 2 3 5 6 7 7 7 7 8 8 7 8 8 8 7 7 7 7 7 6 7 6 7 7
0 0 0 0 1 1 1 1 1 1 1 1 1 1 1 1 0 0 0 1 2 4 5 7 7 7 7 8 7 7 7 7 8 7 7 7 7 6 6 6 5 6 6
1 1 1 1 1 1 1 1 1 1 1 1 1 1 1 1 1 0 0 0 1 2 4 6 6 7 7 7 7 7 8 7 7 6 6 6 6 6 6 5 5 5 6
1 0 1 1 1 0 0 0 1 1 1 1 1 1 1 1 0 1 0 0 1 1 2 3 4 5 6 7 7 7 7 7 7 6 6 5 6 6 5 5 5 5 5
1 1 1 1 1 0 0 0 1 0 0 1 1 1 1 1 1 0 0 1 1 1 1 1 3 4 5 6 6 7 7 6 6 6 6 5 5 6 6 6 6 5 5
1 1 1 1 1 0 0 0 0 1 0 0 1 1 1 1 1 0 1 0 1 1 1 1 1 2 3 4 5 6 6 6 5 6 6 6 5 5 6 7 7 6 5
1 0 1 1 1 1 1 1 0 0 0 0 1 1 2 1 1 1 1 0 1 1 1 1 1 1 1 3 4 5 6 6 6 5 5 6 6 6 6 7 7 7 6
1 0 0 1 1 1 1 1 1 1 1 1 1 1 1 1 1 2 2 1 1 1 2 1 1 1 1 1 2 4 4 6 6 6 6 6 7 7 7 7 7 8 7
1 1 1 1 1 1 2 2 2 2 2 2 1 2 2 2 1 2 2 2 1 1 2 2 2 2 2 2 2 4 4 5 6 6 6 6 6 8 8 7 7 8 8
2 2 2 2 2 2 2 3 3 2 3 3 2 1 1 1 1 1 2 2 2 3 3 2 2 3 3 2 2 3 4 5 6 7 7 7 7 7 8 8 8 8 8
2 2 2 2 2 2 3 3 3 3 3 3 3 2 1 1 1 2 2 2 3 3 3 3 3 3 3 3 2 3 4 5 7 8 8 8 8 8 8 8 9 8 9
2 3 3 2 3 3 3 3 3 3 4 4 3 3 3 2 2 2 3 3 4 3 3 3 3 3 3 2 3 3 4 5 6 8 9 9 9 8 8 8 8 9 9
3 3 3 3 3 4 4 4 4 4 4 4 4 4 4 3 3 2 2 2 3 2 2 2 3 2 2 2 3 3 4 5 6 8 9 9 8 7 8 9 9 8 8
3 4 4 4 4 4 4 4 4 4 4 5 5 5 4 4 3 3 3 2 2 2 2 3 2 3 2 2 3 4 4 6 6 6 8 8 7 6 7 7 8 8 8
3 4 4 4 4 4 4 4 4 5 4 5 5 6 4 4 4 3 3 3 4 3 4 3 2 3 3 3 4 3 3 6 6 7 6 7 7 6 6 7 7 8 7
4 4 4 4 4 4 4 4 4 4 5 5 5 6 5 4 4 4 3 3 3 3 4 3 3 2 3 3 4 4 4 6 7 7 7 6 7 7 6 7 7 8 8
4 4 4 5 5 5 5 5 5 5 5 5 5 6 7 5 5 4 4 4 3 3 4 4 3 2 3 4 4 4 4 4 4 7 7 8 7 8 8 7 7 8 8
4 4 4 5 5 5 5 5 6 6 6 6 6 6 6 5 6 5 5 6 5 4 4 5 4 3 4 5 4 4 4 4 4 6 8 8 8 8 8 8 8 8 9
5 5 5 5 6 6 6 6 6 6 7 7 7 7 7 6 7 5 6 6 5 4 4 4 5 4 3 3 4 4 4 3 4 5 7 8 8 8 8 9 9 8 9
6 5 5 6 6 6 7 6 6 6 6 7 7 7 7 8 8 7 6 6 5 5 5 5 5 4 4 4 4 4 4 3 4 4 6 7 8 9 9 10 10 9 9
6 6 6 6 6 6 6 7 7 7 6 6 7 7 7 8 9 8 6 6 6 6 6 5 5 4 4 4 5 4 5 4 4 3 4 4 4 5 6 8 10 10 10
6 6 6 6 6 6 9 11 9 6 6 7 7 6 6 8 9 10 10 9 8 7 7 6 6 7 7 6 5 5 4 4 4 3 3 5 4 5 5 5 9 11 11
6 6 6 6 7 8 11 11 11 7 6 6 6 6 5 6 8 6 8 9 9 10 10 7 7 8 7 7 6 7 6 6 6 4 3 6 4 6 5 6 10 11 10
6 6 6 6 7 8 11 11 10 6 6 6 6 6 6 6 6 7 6 6 6 7 8 7 7 7 6 5 7 8 7 5 4 3 3 5 5 5 5 5 9 10 10
6 6 6 6 6 7 10 10 9 5 5 6 6 6 7 7 9 9 6 6 6 6 8 9 8 7 7 7 6 4 5 5 5 4 4 4 3 3 3 5 5 8 8
6 6 6 6 6 6 9 10 9 4 5 5 5 6 8 8 9 9 7 6 7 6 5 5 5 6 5 5 7 6 5 6 4 3 4 4 3 2 2 3 3 4 5
Wind_Direction
313 344 13 24 4 4 4 0 18 12 4 359 2 18 7 276 26 355 228 146 147 152 155 152 151 146 149 150 148 146 145 143 139 136 133 132 131 126 122 123 116 113 110
291 227 230 316 338 345 346 341 352 3 343 348 355 1 332 300 262 334 257 158 153 155 159 160 159 158 156 157 157 157 152 150 143 141 141 142 140 140 139 131 129 128 120
309 269 226 227 289 314 339 6 6 20 23 11 1 351 331 312 298 288 249 155 168 155 159 163 167 165 164 160 159 157 155 153 150 146 150 150 149 151 152 151 148 144 134
319 243 252 242 262 272 0 36 31 23 23 5 343 335 333 322 301 285 335 155 141 138 159 162 165 169 169 165 162 162 160 157 159 158 159 161 164 165 165 169 163 154 146
327 307 250 273 250 205 45 314 360 20 45 347 316 320 306 323 287 276 28 143 130 112 126 156 162 166 175 178 175 172 164 161 162 166 169 169 175 177 178 179 174 165 161
316 3 307 306 294 248 335 355 311 330 199 259 300 311 290 263 269 222 233 24 152 142 131 138 158 180 179 179 180 180 177 174 172 177 182 181 182 186 188 186 184 181 180
314 0 334 322 329 274 246 230 232 234 308 10 12 339 326 264 214 223 247 266 225 180 155 148 164 171 195 191 194 183 185 188 187 190 192 195 196 197 200 198 194 193 194
280 278 313 279 279 297 285 239 213 227 245 183 150 152 312 295 257 243 224 209 237 212 185 189 174 183 182 205 210 189 192 197 196 200 202 204 209 210 210 207 203 202 200
263 273 266 272 259 235 253 254 225 204 220 228 198 180 184 227 280 252 224 214 218 227 218 202 199 203 192 195 214 210 202 204 205 207 210 212 216 219 217 214 213 211 207
285 274 264 263 259 250 251 258 256 235 204 218 234 252 241 200 209 265 259 234 239 235 223 218 220 214 200 197 227 227 212 210 214 216 218 221 223 224 224 220 219 220 217
296 289 273 263 261 259 256 256 262 251 226 221 222 229 253 256 231 213 243 246 257 235 225 218 216 218 210 206 212 233 231 223 222 225 226 228 230 229 230 229 226 226 224
298 296 291 275 267 266 265 259 257 252 244 236 236 218 211 209 209 207 232 237 243 238 238 223 218 215 212 206 228 248 241 238 236 234 232 231 233 234 235 234 234 232 229
291 288 288 277 275 272 266 264 257 258 251 240 238 232 225 230 225 215 221 242 257 257 234 234 224 213 212 213 229 247 248 251 251 245 238 236 236 238 239 237 236 235 236
274 279 282 277 278 280 278 265 261 257 255 245 246 239 232 232 227 221 210 216 247 252 236 233 227 209 218 226 249 246 247 255 257 257 250 245 242 243 242 239 238 238 238
281 283 287 285 281 278 276 270 261 260 256 250 246 242 238 234 227 227 216 208 201 224 234 225 229 218 227 233 251 240 253 255 253 254 259 256 244 239 240 241 239 237 235
284 286 285 283 279 274 271 265 266 270 260 256 250 239 235 237 232 226 220 222 211 210 239 233 234 245 236 253 257 244 245 268 253 252 252 254 246 234 235 239 242 239 233
286 282 280 281 278 270 265 263 263 268 259 261 261 247 238 235 232 226 223 223 222 213 238 259 250 228 224 240 249 241 247 246 250 250 251 252 249 237 232 236 240 238 235
284 279 275 272 275 272 261 258 262 265 257 253 256 252 242 238 238 229 226 225 220 218 223 248 263 234 226 223 234 243 251 253 252 254 250 249 248 241 234 235 240 241 238
289 285 278 270 271 272 263 257 255 257 254 249 248 249 241 230 236 231 232 230 223 227 221 231 252 247 237 224 230 247 250 251 257 258 250 245 245 246 241 238 241 241 237
288 281 276 274 272 273 271 263 259 258 255 252 251 250 245 232 228 228 233 230 223 219 220 226 238 241 235 226 217 225 246 246 252 264 254 250 251 249 245 242 242 239 236
291 283 279 280 277 273 270 266 257 256 254 253 252 251 253 250 240 235 236 225 221 218 219 223 230 236 232 217 222 219 241 253 255 244 243 241 244 244 240 245 242 238 238
287 281 276 278 278 276 284 282 275 264 259 257 258 260 259 260 252 247 248 243 233 225 222 224 229 230 231 224 223 228 233 244 252 224 233 247 235 240 240 236 246 244 238
287 281 277 276 274 276 285 284 282 275 267 262 260 262 264 265 257 240 245 247 244 245 240 230 230 232 232 227 220 227 229 233 246 239 242 251 235 243 246 250 252 246 240
284 281 278 275 276 281 288 286 284 276 266 263 259 258 260 260 259 245 238 236 236 239 243 238 231 234 238 235 226 228 229 238 264 253 223 246 236 241 255 247 247 241 243
286 280 277 272 273 281 289 288 285 269 263 263 260 259 262 254 264 255 238 237 243 249 256 254 258 255 256 257 254 236 219 222 245 241 213 226 235 248 248 242 243 241 244
290 290 288 277 271 274 286 288 284 268 266 263 261 259 265 263 264 258 235 228 238 244 243 249 251 255 251 251 254 241 226 222 231 236 211 212 217 202 250 243 227 230 236